Terminal Aerodrome Forecast
Issued by NWS

Home | Current Version | Previous Version | Text Only | Print | Product List | Glossary On
Versions: 1 2 3 4 5 6 7 8 9 10 11 12 13 14 15 16 17 18 19 20 21 22
000
FTUS46 KSGX 290005 AAA
TAFCRQ
TAF AMD
KCRQ 290005Z 2900/2924 26008KT P6SM SCT013
     FM290100 VRB04KT P6SM SCT012
     FM290500 VRB04KT P6SM OVC010
     FM291700 VRB04KT P6SM SCT012
     FM292000 26008KT P6SM SCT200=

USA.gov is the U.S. government's official web portal to all federal, state and local government web resources and services.